WXM80 ListenWXM80 Stop

You find our weather info also at:

UK Metoffice

WeatherCloud

Weather Underground

Northeastern Weather Network

AWEKAS

Citizen Weather Observer Program (CWOP)

HAMweather, WeatherForYou, PWS Weather


Weather Underground History page Text

Daily Summary for May 18, 2017 Units:  English    Metric   Both
« Previous Day
Next Day »
Daily Weekly Monthly Yearly Custom
  High: Low: Average:
Temperature: 97.3 °F 72.7 °F 83.4 °F
Dew Point: 72.0 °F 62.6 °F 66.4 °F
Humidity: 79 % 34 % 59 %
Wind Speed: 10.0 mph 0.1 mph 3.2 mph
Wind Gust: 20.0 mph - -
Wind:- - SW
Pressure: 29.91 in 29.77 in -
Precipitation: 0.00 in    
Historical Graphs
 
 
Tabular Data for May 18, 2017
Time Temperature Dew Point Pressure Wind Wind Speed Wind Gust Humidity Rainfall Rate (Hourly)
00:00 76.4 °F 66.3 °F 29.88 in SW 2.3 mph 3.5 mph 71 % 0.00 in
00:05 76.4 °F 66.3 °F 29.88 in SSW 3.6 mph 9.2 mph 71 % 0.00 in
00:10 76.5 °F 66.4 °F 29.88 in WSW 2.1 mph 3.5 mph 71 % 0.00 in
00:15 76.4 °F 66.3 °F 29.88 in SW 2.1 mph 9.2 mph 71 % 0.00 in
00:20 76.4 °F 66.3 °F 29.88 in SSW 3.7 mph 5.8 mph 71 % 0.00 in
00:25 76.5 °F 66.4 °F 29.88 in SW 3.6 mph 6.9 mph 71 % 0.00 in
00:30 76.5 °F 66.4 °F 29.88 in SSW 4.1 mph 6.9 mph 71 % 0.00 in
00:35 76.5 °F 66.0 °F 29.88 in SSW 3.4 mph 6.9 mph 70 % 0.00 in
00:40 76.6 °F 66.1 °F 29.87 in SSW 2.2 mph 9.2 mph 70 % 0.00 in
00:45 76.7 °F 66.2 °F 29.88 in SW 1.6 mph 4.0 mph 70 % 0.00 in
00:50 76.9 °F 66.0 °F 29.87 in SW 3.1 mph 5.8 mph 69 % 0.00 in
00:55 77.0 °F 66.0 °F 29.87 in SSW 4.4 mph 9.2 mph 69 % 0.00 in
01:00 77.2 °F 66.2 °F 29.87 in SW 1.8 mph 3.5 mph 69 % 0.00 in
01:06 77.3 °F 66.3 °F 29.87 in WSW 1.1 mph 4.6 mph 69 % 0.00 in
01:11 77.4 °F 66.4 °F 29.87 in SSW 5.9 mph 6.9 mph 69 % 0.00 in
01:16 77.5 °F 66.1 °F 29.87 in SW 5.0 mph 10.0 mph 68 % 0.00 in
01:21 77.6 °F 66.2 °F 29.86 in WSW 2.0 mph 6.0 mph 68 % 0.00 in
01:26 77.7 °F 66.3 °F 29.86 in WSW 3.0 mph 12.0 mph 68 % 0.00 in
01:31 77.7 °F 66.3 °F 29.86 in SW 2.0 mph 6.0 mph 68 % 0.00 in
01:36 77.8 °F 66.4 °F 29.86 in SW 1.0 mph 7.0 mph 68 % 0.00 in
01:41 77.8 °F 66.4 °F 29.86 in SW 3.0 mph 9.0 mph 68 % 0.00 in
01:46 77.8 °F 66.4 °F 29.86 in SW 1.2 mph 5.8 mph 68 % 0.00 in
01:51 77.9 °F 66.5 °F 29.86 in SW 3.0 mph 8.0 mph 68 % 0.00 in
01:56 77.8 °F 66.8 °F 29.86 in West 3.6 mph 11.5 mph 69 % 0.00 in
02:01 77.8 °F 66.8 °F 29.86 in SW 2.8 mph 6.0 mph 69 % 0.00 in
02:06 77.7 °F 66.7 °F 29.86 in WSW 2.0 mph 8.0 mph 69 % 0.00 in
02:11 77.6 °F 66.6 °F 29.86 in SW 2.0 mph 6.0 mph 69 % 0.00 in
02:16 77.6 °F 67.0 °F 29.86 in SW 5.0 mph 7.0 mph 70 % 0.00 in
02:21 77.5 °F 66.9 °F 29.86 in SW 2.0 mph 8.0 mph 70 % 0.00 in
02:26 77.4 °F 66.8 °F 29.86 in SW 3.0 mph 6.0 mph 70 % 0.00 in
02:31 77.2 °F 66.7 °F 29.86 in WSW 3.2 mph 6.9 mph 70 % 0.00 in
02:35 77.1 °F 66.6 °F 29.86 in WSW 0.3 mph 1.2 mph 70 % 0.00 in
02:41 77.0 °F 66.9 °F 29.86 in SW 2.2 mph 4.6 mph 71 % 0.00 in
02:46 76.8 °F 66.7 °F 29.86 in SW 2.2 mph 3.5 mph 71 % 0.00 in
02:51 76.7 °F 66.6 °F 29.85 in WSW 2.0 mph 6.0 mph 71 % 0.00 in
02:56 76.6 °F 66.5 °F 29.86 in WSW 3.1 mph 6.9 mph 71 % 0.00 in
02:59 76.5 °F 66.4 °F 29.86 in WSW 2.1 mph 5.8 mph 71 % 0.00 in
03:04 76.4 °F 66.3 °F 29.86 in SW 3.8 mph 10.4 mph 71 % 0.00 in
03:09 76.3 °F 66.6 °F 29.86 in SW 4.5 mph 6.0 mph 72 % 0.00 in
03:14 76.2 °F 66.5 °F 29.86 in SW 2.9 mph 6.9 mph 72 % 0.00 in
03:19 76.2 °F 66.1 °F 29.86 in SW 6.0 mph 11.5 mph 71 % 0.00 in
03:24 76.2 °F 66.1 °F 29.86 in WSW 4.5 mph 6.9 mph 71 % 0.00 in
03:25 76.2 °F 66.1 °F 29.86 in SW 3.9 mph 8.1 mph 71 % 0.00 in
03:30 76.2 °F 66.1 °F 29.86 in SW 2.5 mph 8.1 mph 71 % 0.00 in
03:35 76.2 °F 66.1 °F 29.86 in WSW 5.2 mph 5.2 mph 71 % 0.00 in
03:40 76.2 °F 66.1 °F 29.86 in SW 3.0 mph 4.6 mph 71 % 0.00 in
03:45 76.1 °F 66.4 °F 29.86 in SW 2.0 mph 4.6 mph 72 % 0.00 in
03:50 76.0 °F 66.3 °F 29.87 in WSW 3.0 mph 9.2 mph 72 % 0.00 in
03:55 76.0 °F 66.3 °F 29.87 in WSW 1.0 mph 6.9 mph 72 % 0.00 in
04:00 75.9 °F 66.2 °F 29.87 in SW 3.8 mph 4.6 mph 72 % 0.00 in
04:05 75.8 °F 66.1 °F 29.87 in WSW 2.0 mph 3.5 mph 72 % 0.00 in
04:11 75.7 °F 66.0 °F 29.87 in West 4.3 mph 5.8 mph 72 % 0.00 in
04:16 75.5 °F 66.2 °F 29.87 in SW 3.5 mph 3.5 mph 73 % 0.00 in
04:18 75.4 °F 66.1 °F 29.87 in SSW 0.7 mph 4.6 mph 73 % 0.00 in
04:23 75.3 °F 66.0 °F 29.87 in SSW 2.8 mph 5.0 mph 73 % 0.00 in
04:28 75.2 °F 65.9 °F 29.87 in WSW 2.1 mph 3.5 mph 73 % 0.00 in
04:33 75.1 °F 65.9 °F 29.87 in SSW 1.1 mph 3.5 mph 73 % 0.00 in
04:39 75.0 °F 66.1 °F 29.87 in SW 1.2 mph 3.5 mph 74 % 0.00 in
04:44 74.9 °F 66.1 °F 29.88 in SSW 3.1 mph 5.0 mph 74 % 0.00 in
04:49 74.8 °F 66.0 °F 29.88 in WSW 0.7 mph 3.5 mph 74 % 0.00 in
04:54 74.6 °F 66.1 °F 29.88 in SW 1.4 mph 4.6 mph 75 % 0.00 in
04:59 74.5 °F 66.1 °F 29.88 in WSW 0.2 mph 2.3 mph 75 % 0.00 in
05:04 74.3 °F 66.2 °F 29.88 in WSW 2.3 mph 3.5 mph 76 % 0.00 in
05:09 74.1 °F 66.0 °F 29.88 in WSW 3.0 mph 4.6 mph 76 % 0.00 in
05:14 74.0 °F 66.0 °F 29.88 in SW 2.1 mph 4.0 mph 76 % 0.00 in
05:19 73.9 °F 66.2 °F 29.88 in WSW 1.3 mph 3.5 mph 77 % 0.00 in
05:24 73.7 °F 66.0 °F 29.88 in SW 2.3 mph 4.0 mph 77 % 0.00 in
05:29 73.6 °F 65.9 °F 29.88 in SSW 2.7 mph 3.5 mph 77 % 0.00 in
05:34 73.4 °F 65.7 °F 29.88 in SW 1.5 mph 4.0 mph 77 % 0.00 in
05:39 73.3 °F 65.7 °F 29.88 in SSW 2.6 mph 5.8 mph 77 % 0.00 in
05:44 73.3 °F 66.0 °F 29.88 in WSW 1.2 mph 2.3 mph 78 % 0.00 in
05:49 73.2 °F 65.6 °F 29.88 in SW 0.5 mph 2.3 mph 77 % 0.00 in
05:54 73.2 °F 65.9 °F 29.88 in WSW 2.2 mph 4.0 mph 78 % 0.00 in
05:59 73.1 °F 65.8 °F 29.89 in SW 1.2 mph 3.5 mph 78 % 0.00 in
06:04 73.0 °F 65.7 °F 29.89 in SW 0.9 mph 2.3 mph 78 % 0.00 in
06:09 73.0 °F 65.7 °F 29.89 in SSW 0.5 mph 2.3 mph 78 % 0.00 in
06:14 72.9 °F 65.6 °F 29.89 in SW 3.8 mph 4.6 mph 78 % 0.00 in
06:19 72.9 °F 65.6 °F 29.89 in SSW 3.8 mph 5.8 mph 78 % 0.00 in
06:24 72.8 °F 65.5 °F 29.89 in WSW 1.5 mph 3.5 mph 78 % 0.00 in
06:29 72.7 °F 65.8 °F 29.89 in SW 1.4 mph 3.5 mph 79 % 0.00 in
06:34 72.8 °F 65.9 °F 29.89 in SW 2.7 mph 3.0 mph 79 % 0.00 in
06:39 72.8 °F 65.9 °F 29.89 in SW 2.5 mph 3.5 mph 79 % 0.00 in
06:45 73.0 °F 66.1 °F 29.89 in WSW 2.4 mph 5.8 mph 79 % 0.00 in
06:50 73.3 °F 66.4 °F 29.89 in WSW 2.0 mph 8.1 mph 79 % 0.00 in
06:55 73.8 °F 66.5 °F 29.89 in SW 3.7 mph 10.4 mph 78 % 0.00 in
07:00 74.3 °F 67.0 °F 29.89 in WSW 3.3 mph 8.1 mph 78 % 0.00 in
07:05 74.8 °F 67.1 °F 29.89 in WSW 4.8 mph 9.2 mph 77 % 0.00 in
07:10 75.3 °F 67.6 °F 29.90 in WSW 4.0 mph 8.1 mph 77 % 0.00 in
07:15 75.6 °F 67.5 °F 29.90 in West 4.2 mph 8.1 mph 76 % 0.00 in
07:20 75.8 °F 67.3 °F 29.90 in SW 2.2 mph 4.0 mph 75 % 0.00 in
07:25 76.0 °F 67.5 °F 29.90 in SSW 2.5 mph 4.6 mph 75 % 0.00 in
07:30 76.1 °F 67.2 °F 29.90 in SSW 2.7 mph 5.8 mph 74 % 0.00 in
07:35 76.3 °F 67.4 °F 29.90 in SSW 2.2 mph 4.0 mph 74 % 0.00 in
07:40 76.5 °F 67.6 °F 29.91 in West 1.9 mph 6.9 mph 74 % 0.00 in
07:45 76.7 °F 67.8 °F 29.91 in WSW 3.9 mph 6.9 mph 74 % 0.00 in
07:50 76.9 °F 68.0 °F 29.91 in SW 4.4 mph 6.9 mph 74 % 0.00 in
07:56 77.1 °F 67.8 °F 29.91 in West 3.2 mph 5.0 mph 73 % 0.00 in
08:01 77.3 °F 68.0 °F 29.91 in SSW 3.3 mph 4.0 mph 73 % 0.00 in
08:06 77.5 °F 68.2 °F 29.91 in WSW 1.0 mph 6.0 mph 73 % 0.00 in
08:11 77.8 °F 68.4 °F 29.91 in WSW 2.0 mph 7.0 mph 73 % 0.00 in
08:16 78.0 °F 68.3 °F 29.91 in SW 3.0 mph 7.0 mph 72 % 0.00 in
08:21 78.4 °F 68.2 °F 29.91 in WSW 1.9 mph 9.0 mph 71 % 0.00 in
08:26 78.7 °F 68.5 °F 29.91 in SW 3.0 mph 7.0 mph 71 % 0.00 in
08:31 79.0 °F 68.8 °F 29.91 in WSW 1.0 mph 7.0 mph 71 % 0.00 in
08:36 79.3 °F 69.5 °F 29.91 in West 0.8 mph 3.5 mph 72 % 0.00 in
08:41 79.6 °F 69.0 °F 29.91 in WSW 3.0 mph 10.0 mph 70 % 0.00 in
08:46 79.8 °F 69.1 °F 29.91 in SW 5.0 mph 9.0 mph 70 % 0.00 in
08:51 80.1 °F 69.0 °F 29.91 in WSW 5.0 mph 8.0 mph 69 % 0.00 in
08:56 80.4 °F 69.3 °F 29.90 in SW 3.8 mph 8.1 mph 69 % 0.00 in
09:01 80.8 °F 69.2 °F 29.90 in WSW 5.2 mph 8.1 mph 68 % 0.00 in
09:06 81.1 °F 69.5 °F 29.90 in West 5.0 mph 6.9 mph 68 % 0.00 in
09:11 81.4 °F 69.8 °F 29.90 in SW 2.7 mph 5.8 mph 68 % 0.00 in
09:16 81.8 °F 69.8 °F 29.90 in SSW 3.6 mph 5.8 mph 67 % 0.00 in
09:21 82.1 °F 69.6 °F 29.90 in SW 4.4 mph 9.2 mph 66 % 0.00 in
09:26 82.6 °F 70.5 °F 29.90 in West 2.2 mph 3.5 mph 67 % 0.00 in
09:31 83.0 °F 70.0 °F 29.89 in SW 2.7 mph 5.8 mph 65 % 0.00 in
09:36 83.5 °F 70.5 °F 29.89 in WSW 1.4 mph 3.5 mph 65 % 0.00 in
09:41 84.1 °F 70.1 °F 29.89 in SW 1.4 mph 3.5 mph 63 % 0.00 in
09:46 84.7 °F 70.7 °F 29.89 in WSW 1.9 mph 4.6 mph 63 % 0.00 in
09:51 85.4 °F 69.9 °F 29.89 in WNW 2.0 mph 3.5 mph 60 % 0.00 in
09:56 86.1 °F 69.1 °F 29.88 in WSW 4.4 mph 6.9 mph 57 % 0.00 in
10:01 86.8 °F 68.2 °F 29.88 in WNW 2.3 mph 5.8 mph 54 % 0.00 in
10:06 87.5 °F 67.7 °F 29.88 in SW 6.3 mph 10.4 mph 52 % 0.00 in
10:11 88.1 °F 69.9 °F 29.88 in West 1.2 mph 5.0 mph 55 % 0.00 in
10:16 88.6 °F 68.2 °F 29.88 in WSW 3.4 mph 5.0 mph 51 % 0.00 in
10:21 89.2 °F 68.1 °F 29.88 in SW 2.4 mph 3.5 mph 50 % 0.00 in
10:26 89.6 °F 69.1 °F 29.88 in West 2.7 mph 5.0 mph 51 % 0.00 in
10:31 90.0 °F 67.1 °F 29.88 in WSW 5.8 mph 8.1 mph 47 % 0.00 in
10:36 90.3 °F 67.3 °F 29.88 in SW 5.9 mph 8.1 mph 47 % 0.00 in
10:41 90.6 °F 68.2 °F 29.88 in SSW 4.3 mph 5.0 mph 48 % 0.00 in
10:46 90.8 °F 66.5 °F 29.88 in WSW 7.4 mph 12.7 mph 45 % 0.00 in
10:47 90.8 °F 66.5 °F 29.88 in WSW 4.9 mph 12.7 mph 45 % 0.00 in
10:52 90.9 °F 67.3 °F 29.88 in SW 5.8 mph 8.1 mph 46 % 0.00 in
10:57 91.1 °F 66.8 °F 29.87 in West 4.8 mph 10.4 mph 45 % 0.00 in
11:02 91.3 °F 67.6 °F 29.87 in SW 4.9 mph 6.9 mph 46 % 0.00 in
11:07 91.5 °F 67.2 °F 29.87 in WSW 7.2 mph 10.4 mph 45 % 0.00 in
11:12 91.7 °F 67.3 °F 29.88 in SW 4.5 mph 8.1 mph 45 % 0.00 in
11:17 91.9 °F 66.9 °F 29.87 in West 5.0 mph 11.5 mph 44 % 0.00 in
11:22 92.0 °F 66.3 °F 29.87 in WNW 5.1 mph 8.1 mph 43 % 0.00 in
11:27 92.3 °F 68.5 °F 29.87 in WSW 5.6 mph 9.2 mph 46 % 0.00 in
11:28 92.3 °F 67.2 °F 29.87 in West 3.9 mph 10.0 mph 44 % 0.00 in
11:33 92.5 °F 68.1 °F 29.86 in WSW 1.7 mph 10.4 mph 45 % 0.00 in
11:39 92.7 °F 66.2 °F 29.86 in West 4.3 mph 8.1 mph 42 % 0.00 in
11:44 92.9 °F 66.4 °F 29.86 in WSW 7.8 mph 10.4 mph 42 % 0.00 in
11:47 93.0 °F 67.9 °F 29.86 in WSW 3.7 mph 6.9 mph 44 % 0.00 in
11:52 93.2 °F 66.7 °F 29.86 in WSW 7.1 mph 10.4 mph 42 % 0.00 in
11:57 93.4 °F 67.6 °F 29.86 in West 4.7 mph 10.4 mph 43 % 0.00 in
12:02 93.6 °F 67.1 °F 29.86 in WSW 3.8 mph 7.0 mph 42 % 0.00 in
12:07 93.8 °F 67.9 °F 29.86 in WSW 3.0 mph 6.0 mph 43 % 0.00 in
12:12 94.0 °F 68.1 °F 29.86 in NW 5.9 mph 8.1 mph 43 % 0.00 in
12:14 94.1 °F 66.8 °F 29.85 in WSW 4.8 mph 10.4 mph 41 % 0.00 in
12:19 94.5 °F 67.2 °F 29.85 in West 2.9 mph 5.8 mph 41 % 0.00 in
12:24 94.6 °F 68.0 °F 29.85 in WSW 2.4 mph 4.6 mph 42 % 0.00 in
12:29 94.9 °F 66.8 °F 29.85 in West 1.9 mph 3.5 mph 40 % 0.00 in
12:35 95.2 °F 68.5 °F 29.85 in WSW 6.1 mph 7.0 mph 42 % 0.00 in
12:40 95.3 °F 67.9 °F 29.85 in WSW 6.9 mph 6.9 mph 41 % 0.00 in
12:45 95.3 °F 66.4 °F 29.84 in WNW 1.4 mph 4.6 mph 39 % 0.00 in
12:50 95.5 °F 65.9 °F 29.84 in WSW 3.4 mph 6.9 mph 38 % 0.00 in
12:55 95.7 °F 66.8 °F 29.84 in SSW 4.5 mph 8.1 mph 39 % 0.00 in
13:00 95.9 °F 66.2 °F 29.84 in SW 3.9 mph 6.9 mph 38 % 0.00 in
13:05 96.2 °F 66.5 °F 29.84 in WSW 3.5 mph 5.8 mph 38 % 0.00 in
13:10 96.4 °F 65.9 °F 29.83 in West 5.4 mph 8.1 mph 37 % 0.00 in
13:15 96.5 °F 66.7 °F 29.83 in WNW 3.3 mph 5.0 mph 38 % 0.00 in
13:20 96.6 °F 63.6 °F 29.83 in WSW 6.3 mph 10.4 mph 34 % 0.00 in
13:25 96.7 °F 65.4 °F 29.83 in WSW 4.0 mph 5.0 mph 36 % 0.00 in
13:30 96.8 °F 66.2 °F 29.83 in West 1.3 mph 3.5 mph 37 % 0.00 in
13:35 97.1 °F 69.5 °F 29.83 in SSW 3.0 mph 4.0 mph 41 % 0.00 in
13:41 97.3 °F 71.1 °F 29.82 in SSW 1.8 mph 3.5 mph 43 % 0.00 in
13:46 97.0 °F 70.1 °F 29.82 in SSW 5.0 mph 8.0 mph 42 % 0.00 in
13:51 96.8 °F 69.9 °F 29.82 in SSW 3.0 mph 10.0 mph 42 % 0.00 in
13:56 96.9 °F 72.0 °F 29.82 in SSW 5.0 mph 9.0 mph 45 % 0.00 in
14:01 97.0 °F 71.5 °F 29.82 in South 0.8 mph 6.9 mph 44 % 0.00 in
14:06 97.1 °F 71.6 °F 29.82 in West 2.4 mph 11.0 mph 44 % 0.00 in
14:11 97.1 °F 70.2 °F 29.82 in SSW 4.9 mph 8.1 mph 42 % 0.00 in
14:16 97.1 °F 70.2 °F 29.82 in WSW 3.7 mph 10.4 mph 42 % 0.00 in
14:21 97.1 °F 70.2 °F 29.81 in SSW 2.0 mph 8.1 mph 42 % 0.00 in
14:26 96.9 °F 67.8 °F 29.81 in SW 5.9 mph 11.5 mph 39 % 0.00 in
14:31 96.9 °F 68.6 °F 29.81 in SSE 0.8 mph 3.5 mph 40 % 0.00 in
14:36 96.8 °F 67.8 °F 29.81 in SSW 4.9 mph 12.7 mph 39 % 0.00 in
14:41 96.8 °F 69.9 °F 29.81 in SSW 2.6 mph 5.0 mph 42 % 0.00 in
14:46 96.8 °F 67.8 °F 29.81 in SW 2.8 mph 8.1 mph 39 % 0.00 in
14:51 96.8 °F 68.5 °F 29.81 in SE 3.5 mph 6.9 mph 40 % 0.00 in
14:56 96.8 °F 67.8 °F 29.81 in SW 1.8 mph 9.2 mph 39 % 0.00 in
15:01 96.5 °F 68.9 °F 29.81 in SSW 3.1 mph 8.1 mph 41 % 0.00 in
15:06 96.2 °F 68.0 °F 29.81 in WSW 1.7 mph 6.0 mph 40 % 0.00 in
15:11 96.1 °F 67.9 °F 29.81 in WSW 5.1 mph 7.0 mph 40 % 0.00 in
15:16 96.2 °F 68.0 °F 29.81 in SSW 4.0 mph 6.9 mph 40 % 0.00 in
15:22 96.2 °F 67.2 °F 29.80 in SW 6.9 mph 11.5 mph 39 % 0.00 in
15:27 95.9 °F 66.2 °F 29.80 in WSW 3.3 mph 11.5 mph 38 % 0.00 in
15:32 95.8 °F 66.1 °F 29.80 in SSW 3.8 mph 11.5 mph 38 % 0.00 in
15:37 95.7 °F 67.5 °F 29.80 in ESE 2.3 mph 4.6 mph 40 % 0.00 in
15:42 95.6 °F 67.4 °F 29.80 in South 4.1 mph 7.0 mph 40 % 0.00 in
15:47 95.5 °F 68.1 °F 29.80 in SSW 1.0 mph 4.6 mph 41 % 0.00 in
15:52 95.4 °F 68.0 °F 29.80 in SW 2.1 mph 4.6 mph 41 % 0.00 in
15:57 95.4 °F 67.2 °F 29.80 in South 3.7 mph 8.1 mph 40 % 0.00 in
16:02 95.2 °F 67.1 °F 29.80 in SSW 2.8 mph 5.8 mph 40 % 0.00 in
16:07 95.1 °F 69.1 °F 29.80 in SSW 1.2 mph 5.0 mph 43 % 0.00 in
16:12 95.0 °F 67.6 °F 29.79 in SSW 0.7 mph 9.2 mph 41 % 0.00 in
16:17 94.7 °F 67.3 °F 29.80 in SSW 1.6 mph 5.8 mph 41 % 0.00 in
16:22 94.4 °F 67.1 °F 29.79 in SSW 2.0 mph 4.6 mph 41 % 0.00 in
16:27 94.2 °F 66.9 °F 29.80 in SSW 1.7 mph 4.0 mph 41 % 0.00 in
16:32 93.9 °F 67.3 °F 29.80 in South 6.0 mph 11.5 mph 42 % 0.00 in
16:38 93.6 °F 67.1 °F 29.80 in South 2.5 mph 8.1 mph 42 % 0.00 in
16:43 93.2 °F 66.7 °F 29.80 in South 1.1 mph 3.5 mph 42 % 0.00 in
16:48 92.8 °F 66.3 °F 29.80 in South 3.5 mph 11.5 mph 42 % 0.00 in
16:53 92.5 °F 66.7 °F 29.80 in South 1.7 mph 5.8 mph 43 % 0.00 in
16:58 92.2 °F 67.1 °F 29.80 in SW 2.4 mph 4.0 mph 44 % 0.00 in
17:03 92.1 °F 67.1 °F 29.80 in South 1.3 mph 4.6 mph 44 % 0.00 in
17:08 91.8 °F 66.8 °F 29.80 in SSW 2.9 mph 6.9 mph 44 % 0.00 in
17:13 91.2 °F 64.9 °F 29.80 in South 2.6 mph 8.1 mph 42 % 0.00 in
17:18 90.9 °F 65.3 °F 29.80 in SSW 3.6 mph 7.0 mph 43 % 0.00 in
17:23 90.6 °F 65.0 °F 29.80 in SSW 4.0 mph 5.8 mph 43 % 0.00 in
17:28 90.2 °F 65.3 °F 29.80 in SSW 2.3 mph 3.5 mph 44 % 0.00 in
17:33 89.9 °F 64.4 °F 29.79 in SW 2.8 mph 5.8 mph 43 % 0.00 in
17:38 89.5 °F 64.0 °F 29.80 in South 2.6 mph 7.0 mph 43 % 0.00 in
17:43 89.2 °F 63.8 °F 29.79 in SW 1.2 mph 6.9 mph 43 % 0.00 in
17:48 88.9 °F 63.5 °F 29.79 in SE 2.0 mph 3.5 mph 43 % 0.00 in
17:53 88.7 °F 63.3 °F 29.79 in SSE 4.1 mph 9.2 mph 43 % 0.00 in
17:58 88.4 °F 63.7 °F 29.78 in SSW 1.2 mph 3.5 mph 44 % 0.00 in
18:03 88.2 °F 63.5 °F 29.78 in South 1.0 mph 3.5 mph 44 % 0.00 in
18:08 88.0 °F 62.7 °F 29.78 in SW 4.6 mph 8.1 mph 43 % 0.00 in
18:13 87.8 °F 63.2 °F 29.78 in SSW 3.8 mph 6.9 mph 44 % 0.00 in
18:18 87.6 °F 63.0 °F 29.78 in South 4.1 mph 8.1 mph 44 % 0.00 in
18:23 87.4 °F 62.8 °F 29.78 in SSW 4.4 mph 5.8 mph 44 % 0.00 in
18:28 87.2 °F 62.6 °F 29.78 in SSE 2.4 mph 6.9 mph 44 % 0.00 in
18:33 86.9 °F 63.0 °F 29.78 in SSW 1.9 mph 4.6 mph 45 % 0.00 in
18:38 86.7 °F 62.8 °F 29.77 in SSW 3.5 mph 5.8 mph 45 % 0.00 in
18:43 86.4 °F 63.2 °F 29.78 in East 3.7 mph 6.0 mph 46 % 0.00 in
18:48 86.1 °F 63.5 °F 29.77 in SSE 3.2 mph 8.1 mph 47 % 0.00 in
18:53 85.8 °F 63.2 °F 29.77 in South 4.9 mph 6.9 mph 47 % 0.00 in
18:54 85.7 °F 63.1 °F 29.77 in SSW 4.3 mph 6.9 mph 47 % 0.00 in
18:59 85.4 °F 63.5 °F 29.77 in SSW 1.6 mph 5.8 mph 48 % 0.00 in
19:04 85.0 °F 63.1 °F 29.78 in SSW 3.7 mph 6.9 mph 48 % 0.00 in
19:09 84.6 °F 63.3 °F 29.78 in SSW 2.7 mph 5.8 mph 49 % 0.00 in
19:14 84.3 °F 63.1 °F 29.78 in SSW 4.3 mph 5.8 mph 49 % 0.00 in
19:19 83.9 °F 63.3 °F 29.78 in South 2.0 mph 5.8 mph 50 % 0.00 in
19:24 83.6 °F 63.6 °F 29.78 in SSW 2.0 mph 3.5 mph 51 % 0.00 in
19:29 83.3 °F 63.3 °F 29.78 in WSW 1.5 mph 5.0 mph 51 % 0.00 in
19:34 82.9 °F 63.5 °F 29.79 in SSW 3.5 mph 5.0 mph 52 % 0.00 in
19:39 82.5 °F 63.1 °F 29.78 in SSW 2.7 mph 3.5 mph 52 % 0.00 in
19:44 82.1 °F 63.3 °F 29.78 in SSW 4.1 mph 6.0 mph 53 % 0.00 in
19:49 81.7 °F 62.9 °F 29.77 in SSW 3.4 mph 7.0 mph 53 % 0.00 in
19:54 81.4 °F 63.2 °F 29.77 in SSW 2.2 mph 4.0 mph 54 % 0.00 in
19:59 81.1 °F 62.9 °F 29.78 in SW 3.4 mph 5.8 mph 54 % 0.00 in
20:04 80.7 °F 63.0 °F 29.78 in SSW 3.1 mph 4.6 mph 55 % 0.00 in
20:09 80.4 °F 62.8 °F 29.79 in SSW 3.1 mph 9.2 mph 55 % 0.00 in
20:14 80.1 °F 63.0 °F 29.79 in SW 1.7 mph 3.5 mph 56 % 0.00 in
20:15 80.1 °F 63.0 °F 29.79 in SW 1.6 mph 4.6 mph 56 % 0.00 in
20:20 79.8 °F 63.2 °F 29.78 in South 2.2 mph 3.5 mph 57 % 0.00 in
20:25 79.5 °F 63.9 °F 29.78 in South 2.1 mph 3.5 mph 59 % 0.00 in
20:30 79.2 °F 63.6 °F 29.78 in SSW 1.0 mph 3.5 mph 59 % 0.00 in
20:35 78.9 °F 63.8 °F 29.78 in SSW 2.1 mph 4.6 mph 60 % 0.00 in
20:40 78.6 °F 64.0 °F 29.78 in SSW 1.5 mph 2.3 mph 61 % 0.00 in
20:45 78.4 °F 63.8 °F 29.78 in SSW 0.1 mph 3.5 mph 61 % 0.00 in
20:50 78.2 °F 63.6 °F 29.78 in SW 1.2 mph 2.3 mph 61 % 0.00 in
20:55 77.9 °F 63.8 °F 29.79 in SSW 1.4 mph 3.5 mph 62 % 0.00 in
21:00 77.7 °F 63.6 °F 29.79 in WSW 2.8 mph 5.0 mph 62 % 0.00 in
21:05 77.5 °F 63.9 °F 29.79 in SW 1.2 mph 3.5 mph 63 % 0.00 in
21:10 77.4 °F 63.8 °F 29.79 in SSW 1.6 mph 2.3 mph 63 % 0.00 in
21:15 77.2 °F 64.1 °F 29.79 in WSW 0.4 mph 3.5 mph 64 % 0.00 in
21:20 77.0 °F 63.9 °F 29.78 in SSW 2.4 mph 3.5 mph 64 % 0.00 in
21:25 76.9 °F 63.8 °F 29.78 in SW 0.8 mph 3.5 mph 64 % 0.00 in
21:31 76.8 °F 64.1 °F 29.78 in SW 2.0 mph 9.0 mph 65 % 0.00 in
21:36 76.7 °F 64.0 °F 29.78 in SW 2.0 mph 8.0 mph 65 % 0.00 in
21:41 76.6 °F 64.0 °F 29.79 in SW 1.0 mph 7.0 mph 65 % 0.00 in
21:46 76.6 °F 64.4 °F 29.79 in SW 1.0 mph 8.0 mph 66 % 0.00 in
21:51 76.7 °F 64.5 °F 29.79 in SSW 3.0 mph 10.0 mph 66 % 0.00 in
21:55 76.8 °F 64.6 °F 29.79 in SSW 2.0 mph 13.0 mph 66 % 0.00 in
22:01 76.9 °F 64.2 °F 29.80 in SW 4.6 mph 8.1 mph 65 % 0.00 in
22:06 77.0 °F 64.4 °F 29.79 in SW 5.0 mph 13.0 mph 65 % 0.00 in
22:11 77.2 °F 64.5 °F 29.80 in SW 2.0 mph 6.0 mph 65 % 0.00 in
22:16 77.3 °F 64.6 °F 29.79 in SW 3.0 mph 10.0 mph 65 % 0.00 in
22:21 77.4 °F 64.7 °F 29.80 in SW 3.0 mph 7.0 mph 65 % 0.00 in
22:26 77.5 °F 64.4 °F 29.80 in SW 6.0 mph 12.0 mph 64 % 0.00 in
22:31 77.6 °F 64.9 °F 29.80 in SW 3.0 mph 8.0 mph 65 % 0.00 in
22:36 77.7 °F 65.0 °F 29.80 in SW 5.0 mph 12.0 mph 65 % 0.00 in
22:41 77.8 °F 65.1 °F 29.80 in SW 6.0 mph 14.0 mph 65 % 0.00 in
22:46 78.0 °F 65.7 °F 29.80 in SW 3.0 mph 10.0 mph 66 % 0.00 in
22:51 78.2 °F 65.5 °F 29.80 in SW 10.0 mph 20.0 mph 65 % 0.00 in
22:56 78.5 °F 65.7 °F 29.80 in SW 2.0 mph 18.0 mph 65 % 0.00 in
23:01 78.7 °F 65.9 °F 29.80 in SW 5.5 mph 7.0 mph 65 % 0.00 in
23:05 78.8 °F 66.0 °F 29.80 in WSW 8.9 mph 10.4 mph 65 % 0.00 in
23:11 78.9 °F 66.1 °F 29.80 in SW 5.0 mph 14.0 mph 65 % 0.00 in
23:16 78.9 °F 66.1 °F 29.80 in SSW 6.5 mph 14.0 mph 65 % 0.00 in
23:21 79.0 °F 66.2 °F 29.80 in South 8.1 mph 17.3 mph 65 % 0.00 in
23:26 79.1 °F 66.3 °F 29.80 in SW 4.7 mph 10.4 mph 65 % 0.00 in
23:31 79.1 °F 66.3 °F 29.80 in WSW 7.4 mph 17.3 mph 65 % 0.00 in
23:36 79.0 °F 66.2 °F 29.80 in SW 5.3 mph 9.2 mph 65 % 0.00 in
23:41 79.1 °F 66.3 °F 29.81 in WSW 4.3 mph 11.5 mph 65 % 0.00 in
23:46 79.1 °F 66.3 °F 29.81 in SW 5.0 mph 10.0 mph 65 % 0.00 in
23:51 79.1 °F 66.3 °F 29.80 in SW 4.0 mph 8.1 mph 65 % 0.00 in
23:56 79.0 °F 66.7 °F 29.80 in West 6.1 mph 11.5 mph 66 % 0.00 in
23:57 79.0 °F 66.7 °F 29.80 in WSW 2.8 mph 6.0 mph 66 % 0.00 in
Crab Meadow Weather
Compliments of Weather Underground - 3 mb

Script developed by  Jim McMurry - jmcmurry@mwt.net Adapted for the template by  Wim van der Kuil - Leuven-Template.eu

Recycling: If every American home replaced just one light bulb with an ENERGY STAR qualified bulb, we would save enough energy to light more than 3 million homes for a year, more than $600 million in annual energy costs, and prevent greenhouse gases equivalent to the emissions of more than 800,000 cars.